Location: ??????
(30.5519°N, 47.7720°E)
Time: 18:01:54
(UTC+00:00)

Meteor 2-1 Rocket - Pass Details

Date: 24 January 2021
Orbit: 827 x 910 km, 81.3° (Epoch: 01 March)

Event Time Altitude Azimuth Distance (km) Brightness Sun altitude
Rises 14:52:43 0° 357° (N) 3,382 7.2 -7.8°
Reaches altitude 10° 14:55:11 10° 1° (N) 2,439 6.4 -8.3°
Maximum altitude 15:00:37 60° 81° (E) 945 4.2 -9.4°
Drops below altitude 10° 15:06:00 10° 161° (SSE) 2,423 6.6 -10.6°
Sets 15:08:26 0° 165° (SSE) 3,357 7.3 -11.1°
